sat.trackr.live / text

‹ back to catalog

STARLINK-36510

NORAD 67407 · 2026-005D

PAYLOAD ACTIVE UNKNOWN

§ Identity

Operator
Country
US
Launch date
2026-01-12
Launch site
AFETR
Launch vehicle
Mass (kg)
RCS (m²)

Purposes: comms

External: N2YO · Heavens-Above · Gunter

§ Orbital elements

Epoch: 2026-09-19T22:30:37.163232Z

Period
94.27 min
Inclination
43.0010°
Eccentricity
0.0000573
Mean motion
15.27588971 rev/d
Perigee alt
482.6 km
Apogee alt
483.4 km
Semi-major
6,861.2 km
B*
3.3771e-4
RAAN
221.0273°
Arg perigee
284.0200°
Mean anomaly
76.0588°
Rev number
3,840

§ Raw data

STARLINK-365101 67407U 26005D   26262.93793013  .00009045  00000+0  33771-3 0  99912 67407  43.0010 221.0273 0000573 284.0200  76.0588 15.27588971 38404

JSON: /api/v1/satellites/67407 · /tle

For live sub-satellite position, see the globe view (requires WebGL).

§ Visibility from observer

Set your observer location to see the next 7 days of passes ≥ 10°. The values pass through the URL so the page stays shareable.

No JS? Fill the form by hand. The geolocation button needs JavaScript.